Time,TemperatureF,DewpointF,PressureIn,WindDirection,WindDirectionDegrees,WindSpeedMPH,WindSpeedGustMPH,Humidity,HourlyPrecipIn,Conditions,Clouds,dailyrainin,SolarRadiationWatts/m^2,SoftwareType,DateUTC
2013-01-20 00:23:00,42.0,27.0,-100.00,SSE,152,4.0,14.0,54,0.00,,,0.13,1.000000,,2013-01-20 05:23:00,
2013-01-20 00:33:00,42.0,27.0,-100.00,SSE,152,4.0,14.0,54,0.00,,,0.13,1.000000,,2013-01-20 05:33:00,
2013-01-20 00:43:00,42.0,27.0,-100.00,SSE,152,4.0,14.0,54,0.00,,,0.13,1.000000,,2013-01-20 05:43:00,
2013-01-20 00:53:00,42.0,27.0,-100.00,SSE,152,4.0,14.0,54,0.00,,,0.13,1.000000,,2013-01-20 05:53:00,
2013-01-20 01:22:00,41.0,26.0,-100.00,South,189,5.0,12.0,55,0.00,,,0.13,1.000000,,2013-01-20 06:22:00,
2013-01-20 01:33:00,41.0,26.0,-100.00,South,189,5.0,12.0,55,0.00,,,0.13,1.000000,,2013-01-20 06:33:00,
2013-01-20 01:43:00,41.0,26.0,-100.00,South,189,5.0,12.0,55,0.00,,,0.13,1.000000,,2013-01-20 06:43:00,
2013-01-20 01:52:00,41.0,26.0,-100.00,South,189,5.0,12.0,55,0.00,,,0.13,1.000000,,2013-01-20 06:52:00,
2013-01-20 02:22:00,39.0,26.0,-100.00,South,188,5.0,13.0,60,0.00,,,0.13,1.000000,,2013-01-20 07:22:00,
2013-01-20 02:32:00,39.0,26.0,-100.00,South,188,5.0,13.0,60,0.00,,,0.13,1.000000,,2013-01-20 07:32:00,
2013-01-20 02:42:00,39.0,26.0,-100.00,South,188,5.0,13.0,60,0.00,,,0.13,1.000000,,2013-01-20 07:42:00,
2013-01-20 02:52:00,39.0,26.0,-100.00,South,188,5.0,13.0,60,0.00,,,0.13,1.000000,,2013-01-20 07:52:00,
2013-01-20 03:22:00,38.0,25.0,-100.00,SSW,195,4.0,13.0,58,0.00,,,0.13,1.000000,,2013-01-20 08:22:00,
2013-01-20 03:32:00,38.0,25.0,-100.00,SSW,195,4.0,13.0,58,0.00,,,0.13,1.000000,,2013-01-20 08:32:00,
2013-01-20 03:42:00,38.0,25.0,-100.00,SSW,195,4.0,13.0,58,0.00,,,0.13,1.000000,,2013-01-20 08:42:00,
2013-01-20 03:52:00,38.0,25.0,-100.00,SSW,195,4.0,13.0,58,0.00,,,0.13,1.000000,,2013-01-20 08:52:00,
2013-01-20 04:22:00,37.0,25.0,-100.00,South,188,4.0,9.0,61,0.00,,,0.13,1.000000,,2013-01-20 09:22:00,
2013-01-20 04:33:00,37.0,25.0,-100.00,South,188,4.0,9.0,61,0.00,,,0.13,1.000000,,2013-01-20 09:33:00,
2013-01-20 04:42:00,37.0,25.0,-100.00,South,188,4.0,9.0,61,0.00,,,0.13,1.000000,,2013-01-20 09:42:00,
2013-01-20 04:52:00,37.0,25.0,-100.00,South,188,4.0,9.0,61,0.00,,,0.13,1.000000,,2013-01-20 09:52:00,
2013-01-20 05:23:00,35.0,25.0,-100.00,SE,143,2.0,10.0,67,0.00,,,0.13,1.000000,,2013-01-20 10:23:00,
2013-01-20 05:32:00,35.0,25.0,-100.00,SE,143,2.0,10.0,67,0.00,,,0.13,1.000000,,2013-01-20 10:32:00,
2013-01-20 05:42:00,35.0,25.0,-100.00,SE,143,2.0,10.0,67,0.00,,,0.13,1.000000,,2013-01-20 10:42:00,
2013-01-20 05:52:00,35.0,25.0,-100.00,SE,143,2.0,10.0,67,0.00,,,0.13,1.000000,,2013-01-20 10:52:00,
2013-01-20 06:22:00,37.0,25.0,-100.00,SSW,206,3.0,8.0,62,0.00,,,0.13,1.000000,,2013-01-20 11:22:00,
2013-01-20 06:33:00,37.0,25.0,-100.00,SSW,206,3.0,8.0,62,0.00,,,0.13,1.000000,,2013-01-20 11:33:00,
2013-01-20 06:43:00,37.0,25.0,-100.00,SSW,206,3.0,8.0,62,0.00,,,0.13,1.000000,,2013-01-20 11:43:00,
2013-01-20 06:53:00,37.0,25.0,-100.00,SSW,206,3.0,8.0,62,0.00,,,0.13,1.000000,,2013-01-20 11:53:00,
2013-01-20 07:23:00,40.0,25.0,-100.00,SW,223,5.0,10.0,54,0.00,,,0.13,1.000000,,2013-01-20 12:23:00,
2013-01-20 07:33:00,40.0,25.0,-100.00,SW,223,5.0,10.0,54,0.00,,,0.13,1.000000,,2013-01-20 12:33:00,
2013-01-20 07:43:00,40.0,25.0,-100.00,SW,223,5.0,10.0,54,0.00,,,0.13,1.000000,,2013-01-20 12:43:00,
2013-01-20 07:53:00,40.0,25.0,-100.00,SW,223,5.0,10.0,54,0.00,,,0.13,1.000000,,2013-01-20 12:53:00,
2013-01-20 08:23:00,42.0,27.0,-100.00,SW,223,7.0,16.0,54,0.00,,,0.13,7.000000,,2013-01-20 13:23:00,
2013-01-20 08:33:00,42.0,27.0,-100.00,SW,223,7.0,16.0,54,0.00,,,0.13,7.000000,,2013-01-20 13:33:00,
2013-01-20 08:43:00,42.0,27.0,-100.00,SW,223,7.0,16.0,54,0.00,,,0.13,7.000000,,2013-01-20 13:43:00,
2013-01-20 08:52:00,42.0,27.0,-100.00,SW,223,7.0,16.0,54,0.00,,,0.13,7.000000,,2013-01-20 13:52:00,
2013-01-20 09:23:00,43.0,27.0,-100.00,SW,232,8.0,16.0,53,0.00,,,0.13,71.000000,,2013-01-20 14:23:00,
2013-01-20 09:33:00,43.0,27.0,-100.00,SW,232,8.0,16.0,53,0.00,,,0.13,71.000000,,2013-01-20 14:33:00,
2013-01-20 09:43:00,43.0,27.0,-100.00,SW,232,8.0,16.0,53,0.00,,,0.13,71.000000,,2013-01-20 14:43:00,
2013-01-20 09:53:00,43.0,27.0,-100.00,SW,232,8.0,16.0,53,0.00,,,0.13,71.000000,,2013-01-20 14:53:00,
2013-01-20 10:23:00,47.0,28.0,-100.00,WSW,253,8.0,20.0,48,0.00,,,0.13,250.000000,,2013-01-20 15:23:00,
2013-01-20 10:33:00,47.0,28.0,-100.00,WSW,253,8.0,20.0,48,0.00,,,0.13,250.000000,,2013-01-20 15:33:00,
2013-01-20 10:43:00,47.0,28.0,-100.00,WSW,253,8.0,20.0,48,0.00,,,0.13,250.000000,,2013-01-20 15:43:00,
2013-01-20 10:53:00,47.0,28.0,-100.00,WSW,253,8.0,20.0,48,0.00,,,0.13,250.000000,,2013-01-20 15:53:00,
2013-01-20 11:23:00,47.0,26.0,-100.00,West,270,6.0,25.0,43,0.00,,,0.12,318.000000,,2013-01-20 16:23:00,
2013-01-20 11:33:00,47.0,26.0,-100.00,West,270,6.0,25.0,43,0.00,,,0.12,318.000000,,2013-01-20 16:33:00,
2013-01-20 11:43:00,47.0,26.0,-100.00,West,270,6.0,25.0,43,0.00,,,0.12,318.000000,,2013-01-20 16:43:00,
2013-01-20 11:52:00,47.0,26.0,-100.00,West,270,6.0,25.0,43,0.00,,,0.12,318.000000,,2013-01-20 16:52:00,
2013-01-20 12:23:00,46.0,21.0,-100.00,West,260,9.0,23.0,37,0.00,,,0.10,422.000000,,2013-01-20 17:23:00,
2013-01-20 12:33:00,46.0,21.0,-100.00,West,260,9.0,23.0,37,0.00,,,0.10,422.000000,,2013-01-20 17:33:00,
2013-01-20 12:43:00,46.0,21.0,-100.00,West,260,9.0,23.0,37,0.00,,,0.10,422.000000,,2013-01-20 17:43:00,
2013-01-20 12:52:00,46.0,21.0,-100.00,West,260,9.0,23.0,37,0.00,,,0.10,422.000000,,2013-01-20 17:52:00,
2013-01-20 13:24:00,44.0,16.0,-100.00,West,267,9.0,27.0,32,0.00,,,0.07,463.000000,,2013-01-20 18:24:00,
2013-01-20 13:33:00,44.0,16.0,-100.00,West,267,9.0,27.0,32,0.00,,,0.07,463.000000,,2013-01-20 18:33:00,
2013-01-20 13:43:00,44.0,16.0,-100.00,West,267,9.0,27.0,32,0.00,,,0.07,463.000000,,2013-01-20 18:43:00,
2013-01-20 13:53:00,44.0,16.0,-100.00,West,267,9.0,27.0,32,0.00,,,0.07,463.000000,,2013-01-20 18:53:00,
2013-01-20 14:12:00,44.0,18.0,-100.00,West,261,8.0,28.0,35,0.00,,,0.03,408.000000,,2013-01-20 19:12:00,
2013-01-20 14:23:00,44.0,18.0,-100.00,West,261,8.0,28.0,35,0.00,,,0.03,408.000000,,2013-01-20 19:23:00,
2013-01-20 14:33:00,44.0,18.0,-100.00,West,261,8.0,28.0,35,0.00,,,0.03,408.000000,,2013-01-20 19:33:00,
2013-01-20 14:43:00,44.0,18.0,-100.00,West,261,8.0,28.0,35,0.00,,,0.03,408.000000,,2013-01-20 19:43:00,
2013-01-20 14:52:00,44.0,18.0,-100.00,West,261,8.0,28.0,35,0.00,,,0.03,408.000000,,2013-01-20 19:52:00,
2013-01-20 15:23:00,41.0,16.0,-100.00,WSW,258,8.0,23.0,36,0.00,,,0.00,319.000000,,2013-01-20 20:23:00,
2013-01-20 15:33:00,41.0,16.0,-100.00,WSW,258,8.0,23.0,36,0.00,,,0.00,319.000000,,2013-01-20 20:33:00,
2013-01-20 15:42:00,41.0,16.0,-100.00,WSW,258,8.0,23.0,36,0.00,,,0.00,319.000000,,2013-01-20 20:42:00,
2013-01-20 15:53:00,41.0,16.0,-100.00,WSW,258,8.0,23.0,36,0.00,,,0.00,319.000000,,2013-01-20 20:53:00,
2013-01-20 16:23:00,37.0,16.0,-100.00,West,261,8.0,24.0,41,0.00,,,0.00,182.000000,,2013-01-20 21:23:00,
2013-01-20 16:33:00,37.0,16.0,-100.00,West,261,8.0,24.0,41,0.00,,,0.00,182.000000,,2013-01-20 21:33:00,
2013-01-20 16:43:00,37.0,16.0,-100.00,West,261,8.0,24.0,41,0.00,,,0.00,182.000000,,2013-01-20 21:43:00,
2013-01-20 16:53:00,37.0,16.0,-100.00,West,261,8.0,24.0,41,0.00,,,0.00,182.000000,,2013-01-20 21:53:00,
2013-01-20 17:23:00,33.0,14.0,-100.00,WSW,258,7.0,20.0,46,0.00,,,0.00,35.000000,,2013-01-20 22:23:00,
2013-01-20 17:33:00,33.0,14.0,-100.00,WSW,258,7.0,20.0,46,0.00,,,0.00,35.000000,,2013-01-20 22:33:00,
2013-01-20 17:43:00,33.0,14.0,-100.00,WSW,258,7.0,20.0,46,0.00,,,0.00,35.000000,,2013-01-20 22:43:00,
2013-01-20 17:52:00,33.0,14.0,-100.00,WSW,258,7.0,20.0,46,0.00,,,0.00,35.000000,,2013-01-20 22:52:00,
2013-01-20 18:23:00,30.0,14.0,-100.00,West,267,5.0,14.0,50,0.00,,,0.00,3.000000,,2013-01-20 23:23:00,
2013-01-20 18:33:00,30.0,14.0,-100.00,West,267,5.0,14.0,50,0.00,,,0.00,3.000000,,2013-01-20 23:33:00,
2013-01-20 18:43:00,30.0,14.0,-100.00,West,267,5.0,14.0,50,0.00,,,0.00,3.000000,,2013-01-20 23:43:00,
2013-01-20 18:53:00,30.0,14.0,-100.00,West,267,5.0,14.0,50,0.00,,,0.00,3.000000,,2013-01-20 23:53:00,
2013-01-20 19:23:00,28.0,12.0,-100.00,West,272,5.0,15.0,51,0.00,,,0.00,1.000000,,2013-01-21 00:23:00,
2013-01-20 19:33:00,28.0,12.0,-100.00,West,272,5.0,15.0,51,0.00,,,0.00,1.000000,,2013-01-21 00:33:00,
2013-01-20 19:43:00,28.0,12.0,-100.00,West,272,5.0,15.0,51,0.00,,,0.00,1.000000,,2013-01-21 00:43:00,
2013-01-20 19:53:00,28.0,12.0,-100.00,West,272,5.0,15.0,51,0.00,,,0.00,1.000000,,2013-01-21 00:53:00,
2013-01-20 20:23:00,27.0,12.0,-100.00,West,277,5.0,15.0,53,0.00,,,0.00,1.000000,,2013-01-21 01:23:00,
2013-01-20 20:33:00,27.0,12.0,-100.00,West,277,5.0,15.0,53,0.00,,,0.00,1.000000,,2013-01-21 01:33:00,
2013-01-20 20:43:00,27.0,12.0,-100.00,West,277,5.0,15.0,53,0.00,,,0.00,1.000000,,2013-01-21 01:43:00,
2013-01-20 20:53:00,27.0,12.0,-100.00,West,277,5.0,15.0,53,0.00,,,0.00,1.000000,,2013-01-21 01:53:00,
2013-01-20 21:23:00,25.0,11.0,-100.00,WSW,252,5.0,16.0,55,0.00,,,0.00,1.000000,,2013-01-21 02:23:00,
2013-01-20 21:33:00,25.0,11.0,-100.00,WSW,252,5.0,16.0,55,0.00,,,0.00,1.000000,,2013-01-21 02:33:00,
2013-01-20 21:43:00,25.0,11.0,-100.00,WSW,252,5.0,16.0,55,0.00,,,0.00,1.000000,,2013-01-21 02:43:00,
2013-01-20 21:53:00,25.0,11.0,-100.00,WSW,252,5.0,16.0,55,0.00,,,0.00,1.000000,,2013-01-21 02:53:00,
2013-01-20 22:23:00,24.0,10.0,-100.00,WSW,247,7.0,12.0,54,0.00,,,0.00,1.000000,,2013-01-21 03:23:00,
2013-01-20 22:33:00,24.0,10.0,-100.00,WSW,247,7.0,12.0,54,0.00,,,0.00,1.000000,,2013-01-21 03:33:00,
2013-01-20 22:43:00,24.0,10.0,-100.00,WSW,247,7.0,12.0,54,0.00,,,0.00,1.000000,,2013-01-21 03:43:00,
2013-01-20 22:53:00,24.0,10.0,-100.00,WSW,247,7.0,12.0,54,0.00,,,0.00,1.000000,,2013-01-21 03:53:00,
2013-01-20 23:23:00,23.0,10.0,-100.00,West,267,4.0,14.0,57,0.00,,,0.00,1.000000,,2013-01-21 04:23:00,
2013-01-20 23:33:00,23.0,10.0,-100.00,West,267,4.0,14.0,57,0.00,,,0.00,1.000000,,2013-01-21 04:33:00,
2013-01-20 23:43:00,23.0,10.0,-100.00,West,267,4.0,14.0,57,0.00,,,0.00,1.000000,,2013-01-21 04:43:00,
2013-01-20 23:53:00,23.0,10.0,-100.00,West,267,4.0,14.0,57,0.00,,,0.00,1.000000,,2013-01-21 04:53:00,